This is the latest recevied weather packets stored in our database for station/object ED1YCC-10. If no packets are shown the sender has not sent any weather packets the latest 10 day(s).
| Time | Temp. | Humidity | Pressure | Rain* | Wind** | Luminosity | Snow |
|---|---|---|---|---|---|---|---|
| 1788351757 | 23.33° C | 44% | 856.9 hPa | - | - | - | - |
| 1788350681 | 22.78° C | 45% | 857 hPa | - | - | - | - |
| 1788350556 | 22.78° C | 45% | 857 hPa | - | - | - | - |
| 1788349762 | 21.67° C | 47% | 857 hPa | - | - | - | - |
| 1788349356 | 21.67° C | 47% | 857 hPa | - | - | - | - |
| 1788348156 | 21.11° C | 47% | 857 hPa | - | - | - | - |
| 1788346956 | 20.56° C | 45% | 857 hPa | - | - | - | - |
| 1788346274 | 20.56° C | 43% | 857 hPa | - | - | - | - |
| 1788345756 | 20.56° C | 43% | 857 hPa | - | - | - | - |
| 1788344972 | 20° C | 44% | 857 hPa | - | - | - | - |
| 1788344555 | 20° C | 44% | 857 hPa | - | - | - | - |
| 1788343389 | 19.44° C | 44% | 857.1 hPa | - | - | - | - |
| 1788343355 | 19.44° C | 44% | 857.1 hPa | - | - | - | - |
| 1788342629 | 19.44° C | 45% | 856.9 hPa | - | - | - | - |
| 1788342155 | 19.44° C | 45% | 856.9 hPa | - | - | - | - |
| 1788341248 | 18.89° C | 45% | 856.3 hPa | - | - | - | - |
| 1788340954 | 18.89° C | 45% | 856.6 hPa | - | - | - | - |
| 1788339753 | 18.89° C | 45% | 856.3 hPa | - | - | - | - |
| 1788338941 | 18.89° C | 46% | 856.1 hPa | - | - | - | - |
| 1788338553 | 18.89° C | 46% | 856.1 hPa | - | - | - | - |
| 1788337677 | 18.89° C | 46% | 855.9 hPa | - | - | - | - |
| 1788337353 | 18.89° C | 46% | 855.9 hPa | - | - | - | - |
| 1788336714 | 18.89° C | 46% | 856 hPa | - | - | - | - |
| 1788336153 | 18.89° C | 46% | 856 hPa | - | - | - | - |
| 1788335074 | 18.33° C | 46% | 855.8 hPa | - | - | - | - |
* Rain since midnight (hover to see other rain measurements)
** Current wind speed in m/s (hover to see current wind gust speed)